CW7409 Weather Reports


time (UTC)temp
F
wind
direction
speed
knots
gust
knots
rain 1hr
in
rain 24hr
in
rain mn
in
humidity
%
barometer
mb
20260504174915 82 321 11.3 20.0 0.00 0.00 0.00 24 999.1
20260504173914 81 301 13.9 19.1 0.00 0.00 0.00 22 999.2
20260504171915 81 309 12.2 18.2 0.00 0.00 0.00 23 999.4
20260504170914 81 301 8.7 17.4 0.00 0.00 0.00 23 999.3
20260504150914 69 290 7.8 13.0 0.00 0.00 0.00 44 999.9
20260504140914 62 329 8.7 11.3 0.00 0.00 0.00 54 1000.3
20260504080914 55 160 4.3 6.1 0.00 0.00 0.00 57 1000.7
20260504044915 59 152 4.3 7.0 0.00 0.00 0.00 51 1003.5
20260504041914 60 121 4.3 5.2 0.00 0.00 0.00 49 1004.0
20260504033914 61 140 4.3 6.1 0.00 0.00 0.00 49 1004.7
20260504031916 62 113 2.6 5.2 0.00 0.00 0.00 48 1004.8
20260504024916 64 102 3.5 5.2 0.00 0.00 0.00 45 1004.8
20260504020914 66 49 2.6 4.3 0.00 0.00 0.00 41 1005.0
20260504013914 67 64 1.7 2.6 0.00 0.00 0.00 38 1005.0
20260504010914 69 41 2.6 6.1 0.00 0.00 0.00 36 1005.0
20260504004915 72 39 5.2 7.0 0.00 0.00 0.00 32 1005.2
20260504003914 72 41 6.1 7.8 0.00 0.00 0.00 30 1005.1
20260504001914 74 47 5.2 8.7 0.00 0.00 0.00 30 1005.3
20260504000914 74 49 4.3 6.1 0.00 0.00 0.00 29 1005.5
20260503231914 75 82 4.3 7.0 0.00 0.00 0.00 28 1006.0
20260503230915 75 70 4.3 7.8 0.00 0.00 0.00 29 1005.9
20260503221914 77 86 2.6 7.0 0.00 0.00 0.00 28 1006.3
20260503220914 76 309 2.6 7.8 0.00 0.00 0.00 28 1006.4
20260503213914 77 301 2.6 10.4 0.00 0.00 0.00 25 1006.6
20260503211915 78 39 7.0 11.3 0.00 0.00 0.00 26 1006.9
20260503210914 77 30 8.7 12.2 0.00 0.00 0.00 27 1007.0
20260503203914 77 27 7.8 12.2 0.00 0.00 0.00 27 1007.4
20260503201914 77 7 6.1 10.4 0.00 0.00 0.00 26 1007.7
20260503194914 77 326 6.1 12.2 0.00 0.00 0.00 31 1007.9
20260503191913 76 11 7.0 13.0 0.00 0.00 0.00 30 1008.2